Regional Weather Roundup
Issued by NWS Newport/Morehead, NC

Current Version | Previous Version | Text Only | Print | Product List | Glossary On
Versions: 1 2 3 4 5 6 7 8 9 10 11 12 13 14 15 16 17 18 19 20 21 22 23 24 25 26 27 28 29 30 31 32 33 34 35 36 37 38 39 40 41 42 43 44 45 46 47 48 49 50
000 ASUS42 KMHX 012322 RWRMHX WEATHER ROUNDUP FOR EASTERN NORTH CAROLINA NATIONAL WEATHER SERVICE NEWPORT/MOREHEAD CITY NC 700 PM EDT MON SEP 01 2014 NOTE: "FAIR" INDICATES FEW OR NO CLOUDS BELOW 12,000 FEET WITH NO SIGNIFICANT WEATHER AND/OR OBSTRUCTIONS TO VISIBILITY NCZ015>017-031-032-045>047-102-103-020000- NORTH COAST CITY SKY/WX TMP DP RH WIND PRES REMARKS EDENTON MOCLDY 87 74 64 SW6 30.02R ELIZABETH CITY MOCLDY 87 74 64 S7 30.01S KITTY HAWK MOCLDY 83 74 76 S6 30.02S MANTEO MOCLDY 83 76 79 S16 30.04R $$ NCZ045>047-081-094-103-104-020000- CENTRAL COAST CITY SKY/WX TMP DP RH WIND PRES REMARKS FRISCO PTCLDY 81 77 88 SW15 30.05S SWANQUARTER N/A 84 N/A N/A S14G21 30.00S $$ NCZ095-097-098-100-101-020000- SOUTHERN COAST CITY SKY/WX TMP DP RH WIND PRES REMARKS BEAUFORT PTCLDY 83 76 79 SW13 30.06S CEDAR ISLAND N/A 82 N/A N/A S8G14 30.09S JACKSONVILLE MOCLDY 82 75 79 S10 30.04S NEWPORT NOT AVBL PINEY ISLAND PTCLDY 84 76 76 S9 30.04S WILMINGTON PTCLDY 84 74 71 S9 30.05S $$ NCZ011>013-027>030-043-044-078>080-089-090>093-098-020000- COASTAL PLAIN CITY SKY/WX TMP DP RH WIND PRES REMARKS AHOSKIE MOCLDY 81 76 83 CALM 30.02R CLINTON MOCLDY 88 76 68 CALM 30.03S ELIZABETHTOWN MOCLDY 87 75 68 S9 30.05R GOLDSBORO MOCLDY 88 78 72 S2 30.01R HX 101 GREENVILLE MOCLDY 86 77 74 SW3 30.04S HAVELOCK MOCLDY 83 75 77 S7 30.05F KENANSVILLE MOCLDY 85 72 63 CALM 30.05R KINSTON MOCLDY 90 73 58 SW3 30.03S NEW BERN PTCLDY 85 75 72 S10 30.05S RICHLANDS MOCLDY 82 72 69 S9 30.05S ROANOKE RAPIDS NOT AVBL ROCKY MOUNT MOCLDY 83 76 79 CALM 30.02S WASHINGTON MOCLDY 87 73 63 SW3 30.03R WHITEVILLE PTCLDY 84 75 74 S5 30.05F $$ AMZ130-135-150-152-154-156-158-170-250-252-270-ANZ085-086-088-633-658-670-020000- MARINE OBSERVATIONS STATION/POSITION TIME TEMP WIND PRES WAVE SWELL AIR SEA DIR/SP/G HT/PER HT/PER (UTC) (F) (DEG/KT/KT) (MB) (FT/S) (FT/S) CHESAPEAKE LIGHT 2300 81 180/ 19/ 20 1015.6 BUOY 44014 2300 79 78 190/ 14/ 16 1016.0 3/11 2/11 DUCK 2300 84 75 180/ 15/ 18 1015.7 2E DUCK 2300 N/A 2/11 2/11 OREGON INLET 2300 82 85 190/ 16/ 20 1017.0 BUOY 44095 2300 80 N/A 3/11 2/11 20E OREGON INLET NOT AVBL HATTERAS CG 2300 82 84 200/ 7/ 13 1018.1 DIAMOND BUOY 2300 82 200/ 16/ 17 1017.6 3/ 8 2/ 8 CAPE LOOKOUT 2300 82 200/ 10/ 13 1017.8 BEAUFORT LAB 2300 82 83 210/ 10/ 12 1017.3 30 SE NEW RIVER 2300 82 83 210/ 12/ 16 1018.1 3/ 9 2/ 9 5 SE WRIGHTSVILL 2300 79 83 N/A BUOY 41002 2248 82 85 200/ 8/ 10 1020.0 3/ 8 3/ 8 BUOY 41004 2300 83 84 170/ 6/ 8 1018.0 2/ 8 2/ 8 $$

USA.gov is the U.S. government's official web portal to all federal, state and local government web resources and services.